Weather History for KDYB - January, 2013

Change the Weather History Date:

Friday, January 11, 2013

  Actual Average (KCHS) Record (KCHS)
Temperature  
Mean Temperature 65 °F 48 °F  
Max Temperature 77 °F 59 °F 82 °F (1949)
Min Temperature 53 °F 37 °F 10 °F (1982)
Degree Days  
Heating Degree Days 0 17  
Month to date heating degree days 187  
Since 1 July heating degree days 925  
Cooling Degree Days 0 0  
Month to date cooling degree days 0  
Year to date cooling degree days 0  
Growing Degree Days 15 (Base 50)    
Moisture  
Dew Point 58 °F    
Average Humidity 89    
Maximum Humidity 100    
Minimum Humidity 61    
Precipitation  
Precipitation 0.00 in 0.12 in 0.93 in (1991)
Month to date precipitation 1.28  
Year to date precipitation 1.28  
Sea Level Pressure  
Sea Level Pressure 30.25 in    
Wind  
Wind Speed 1 mph (South)    
Max Wind Speed 10 mph    
Max Gust Speed 17 mph    
Visibility 6 miles    
Events Fog    
T = Trace of Precipitation, MM = Missing Value Source: NWS Daily Summary

Daily Weather History Graph

Daily Weather History Graph

Search for Another Location

Airport or City:

Trip Planner

Search our weather history database for the weather conditions in past years. The results will help you decide how hot, cold, wet, or windy it might be!

Date:

Astronomy

Jan. 11, 2013 Rise Set
Actual Time 7:24 AM EST 5:33 PM EST
Civil Twilight 6:57 AM EST 6:00 PM EST
Nautical Twilight 6:27 AM EST 6:31 PM EST
Astronomical Twilight 5:57 AM EST 7:01 PM EST
Moon 6:58 AM EST (1/11) 5:46 PM EST (1/11)
Length of Visible Light 11h 02m
Length of Day
10h 08m
Waning Crescent, 0% of the Moon is Illuminated
Jan 11
Waning Crescent
Jan 11
New
Jan 18
First Quarter
Jan 26
Full
Feb 3
Last Quarter

Hourly Weather History & Observations

Time (EST) Temp. Dew Point Humidity Pressure Visibility Wind Dir Wind Speed Gust Speed Precip Events Conditions
12:35 AM 55.4 °F 55.4 °F 100% 30.35 in 7.0 mi Calm Calm - N/A   Overcast
12:55 AM 55.4 °F 55.4 °F 100% 30.34 in 7.0 mi Calm Calm - N/A   Overcast
1:15 AM 55.4 °F 55.4 °F 100% 30.33 in 7.0 mi Calm Calm - N/A   Overcast
1:35 AM 55.4 °F 55.4 °F 100% 30.32 in 7.0 mi Calm Calm - N/A   Overcast
1:55 AM 53.6 °F 53.6 °F 100% 30.33 in 7.0 mi Calm Calm - N/A   Overcast
2:15 AM 53.6 °F 53.6 °F 100% 30.33 in 4.0 mi Calm Calm - N/A   Overcast
2:35 AM 53.6 °F 53.6 °F 100% 30.32 in 2.5 mi Calm Calm - N/A   Overcast
2:55 AM 53.6 °F 53.6 °F 100% 30.32 in 4.0 mi Calm Calm - N/A   Overcast
3:15 AM 53.6 °F 53.6 °F 100% 30.31 in 4.0 mi Calm Calm - N/A   Overcast
3:35 AM 53.6 °F 53.6 °F 100% 30.30 in 1.8 mi Calm Calm - N/A   Overcast
3:55 AM 53.6 °F 53.6 °F 100% 30.30 in 1.0 mi Calm Calm - N/A   Overcast
4:15 AM 53.6 °F 53.6 °F 100% 30.28 in 1.0 mi Calm Calm - N/A   Overcast
4:35 AM 53.6 °F 53.6 °F 100% 30.29 in 0.8 mi Calm Calm - N/A   Overcast
4:55 AM 53.6 °F 53.6 °F 100% 30.28 in 0.5 mi Calm Calm - N/A Fog Fog
5:15 AM 53.6 °F 53.6 °F 100% 30.28 in 0.5 mi Calm Calm - N/A Fog Fog
5:35 AM 53.6 °F 53.6 °F 100% 30.28 in 0.5 mi Calm Calm - N/A Fog Fog
5:55 AM 53.6 °F 53.6 °F 100% 30.28 in 0.2 mi Calm Calm - N/A Fog Fog
6:15 AM 53.6 °F 53.6 °F 100% 30.28 in 0.2 mi Calm Calm - N/A Fog Fog
6:35 AM 53.6 °F 53.6 °F 100% 30.28 in 0.2 mi Calm Calm - N/A Fog Fog
6:55 AM 53.6 °F 53.6 °F 100% 30.28 in 0.2 mi Calm Calm - N/A Fog Fog
7:35 AM 53.6 °F 53.6 °F 100% 30.27 in 0.2 mi Calm Calm - N/A Fog Fog
7:55 AM 53.6 °F 53.6 °F 100% 30.28 in 0.2 mi Calm Calm - N/A Fog Fog
8:15 AM 55.4 °F 55.4 °F 100% 30.27 in 0.2 mi Calm Calm - N/A Fog Fog
8:35 AM 55.4 °F 55.4 °F 100% 30.28 in 0.2 mi Calm Calm - N/A Fog Fog
8:55 AM 55.4 °F 55.4 °F 100% 30.29 in 0.2 mi Calm Calm - N/A Fog Fog
9:15 AM 55.4 °F 55.4 °F 100% 30.29 in 0.2 mi Calm Calm - N/A Fog Fog
9:35 AM 57.2 °F 57.2 °F 100% 30.30 in 0.2 mi Calm Calm - N/A Fog Fog
9:55 AM 57.2 °F 57.2 °F 100% 30.30 in 0.2 mi Calm Calm - N/A Fog Fog
10:15 AM 59.0 °F 59.0 °F 100% 30.29 in 0.2 mi Calm Calm - N/A Fog Fog
10:35 AM 59.0 °F 59.0 °F 100% 30.29 in 0.2 mi Calm Calm - N/A Fog Fog
10:55 AM 60.8 °F 60.8 °F 100% 30.30 in 3.0 mi NW 3.5 mph - N/A   Overcast
11:15 AM 62.6 °F 62.6 °F 100% 30.29 in 10.0 mi Calm Calm - N/A   Mostly Cloudy
11:35 AM 64.4 °F 62.6 °F 94% 30.27 in 10.0 mi Calm Calm - N/A   Scattered Clouds
11:55 AM 68.0 °F 62.6 °F 83% 30.27 in 10.0 mi Calm Calm - N/A   Scattered Clouds
12:15 PM 69.8 °F 62.6 °F 78% 30.25 in 10.0 mi Calm Calm - N/A   Scattered Clouds
12:35 PM 73.4 °F 62.6 °F 69% 30.24 in 5.0 mi SSW 4.6 mph - N/A   Haze
12:55 PM 73.4 °F 62.6 °F 69% 30.23 in 10.0 mi South 8.1 mph - N/A   Scattered Clouds
1:15 PM 73.4 °F 62.6 °F 69% 30.22 in 10.0 mi SSW 4.6 mph - N/A   Scattered Clouds
1:35 PM 73.4 °F 62.6 °F 69% 30.20 in 10.0 mi SSW 8.1 mph - N/A   Scattered Clouds
1:55 PM 73.4 °F 62.6 °F 69% 30.20 in 10.0 mi SW 4.6 mph - N/A   Clear
2:15 PM 73.4 °F 62.6 °F 69% 30.20 in 10.0 mi WSW 3.5 mph - N/A   Clear
2:35 PM 73.4 °F 62.6 °F 69% 30.20 in 10.0 mi South 4.6 mph - N/A   Scattered Clouds
2:55 PM 77.0 °F 62.6 °F 61% 30.19 in 10.0 mi South 5.8 mph - N/A   Scattered Clouds
3:15 PM 77.0 °F 62.6 °F 61% 30.18 in 10.0 mi South 9.2 mph 17.3 mph N/A   Scattered Clouds
3:35 PM 77.0 °F 62.6 °F 61% 30.18 in 10.0 mi South 10.4 mph - N/A   Clear
3:55 PM 75.2 °F 62.6 °F 65% 30.19 in 10.0 mi South 6.9 mph - N/A   Clear
4:15 PM 75.2 °F 62.6 °F 65% 30.19 in 10.0 mi South 8.1 mph - N/A   Clear
4:35 PM 73.4 °F 62.6 °F 69% 30.19 in 10.0 mi South 4.6 mph - N/A   Clear
4:55 PM 73.4 °F 60.8 °F 65% 30.18 in 10.0 mi South 3.5 mph - N/A   Clear
5:35 PM 69.8 °F 60.8 °F 73% 30.18 in 10.0 mi Calm Calm - N/A   Clear
5:55 PM 68.0 °F 60.8 °F 78% 30.19 in 10.0 mi Calm Calm - N/A   Clear
6:15 PM 68.0 °F 60.8 °F 78% 30.19 in 10.0 mi SSE 3.5 mph - N/A   Clear
6:35 PM 64.4 °F 60.8 °F 88% 30.19 in 10.0 mi Calm Calm - N/A   Clear
6:55 PM 66.2 °F 62.6 °F 88% 30.19 in 10.0 mi SSE 3.5 mph - N/A   Clear
7:15 PM 64.4 °F 62.6 °F 94% 30.19 in 10.0 mi Calm Calm - N/A   Clear
7:35 PM 62.6 °F 60.8 °F 94% 30.19 in 10.0 mi SSE 3.5 mph - N/A   Clear
7:55 PM 64.4 °F 64.4 °F 100% 30.19 in 10.0 mi SSE 4.6 mph - N/A   Clear
11:15 PM 59.0 °F 59.0 °F 100% 30.20 in 5.0 mi Calm Calm - N/A   Overcast
11:35 PM 60.8 °F 60.8 °F 100% 30.20 in 7.0 mi Calm Calm - N/A   Overcast